1494100800.15,52591,16.0,73396.3,0.37,-0.65,-0.65,0,*43
1494100801.34,52592,16.0,73394.3,0.37,-0.53,-0.61,0,*41
1494100802.52,52593,16.0,73392.8,0.37,-0.61,-0.61,0,*41
1494100803.71,52594,16.0,73394.5,0.37,-0.65,-0.61,0,*42
1494100804.91,52595,16.0,73398.8,0.37,-0.73,-0.61,0,*44
1494100806.11,52596,16.0,73396.8,0.37,-0.73,-0.73,0,*44
1494100807.3,52597,16.0,73400.8,0.37,-0.61,-0.65,0,*41
1494100808.48,52598,16.0,73400.0,0.37,-0.61,-0.65,0,*4E
1494100809.66,52599,16.0,73396.5,0.39,-0.57,-0.49,0,*4A
1494100810.85,52600,16.0,73400.5,0.37,-0.65,-0.65,0,*48
1494100812.05,52601,16.0,73400.3,0.37,-0.65,-0.65,0,*49
1494100813.23,52602,16.0,73396.0,0.37,-0.61,-0.61,0,*4A
1494100814.42,52603,16.0,73400.0,0.37,-0.65,-0.61,0,*4F
1494100815.61,52604,16.0,73396.3,0.37,-0.65,-0.65,0,*4C
1494100816.78,52605,16.0,73398.0,0.39,-0.61,-0.61,0,*43
1494100817.97,52606,16.0,73396.3,0.37,-0.73,-0.65,0,*49
1494100819.13,52607,16.0,73398.3,0.39,-0.61,-0.61,0,*41
1494100820.34,52608,16.0,73396.3,0.37,-0.73,-0.73,0,*40
1494100821.5,52609,16.0,73396.0,0.39,-0.61,-0.61,0,*4F
1494100822.66,52610,16.0,73396.3,0.39,-0.61,-0.61,0,*47
1494100823.84,52611,16.0,73398.0,0.39,-0.69,-0.49,0,*44
1494100825.03,52612,16.0,73398.0,0.37,-0.61,-0.53,0,*4A
1494100826.2,52613,16.0,73400.3,0.39,-0.57,-0.57,0,*44
1494100827.37,52614,16.0,73402.0,0.39,-0.49,-0.49,0,*43
1494100828.54,52615,16.0,73396.5,0.39,-0.61,-0.57,0,*47
1494100829.73,52616,16.0,73394.3,0.37,-0.53,-0.53,0,*4F
1494100830.93,52617,16.0,73396.3,0.37,-0.53,-0.53,0,*4E
1494100832.12,52618,16.0,73396.5,0.37,-0.61,-0.53,0,*40
1494100833.3,52619,16.0,73400.3,0.37,-0.61,-0.61,0,*40
1494100834.47,52620,16.0,73398.0,0.39,-0.49,-0.57,0,*4B
1494100835.66,52621,16.0,73394.3,0.37,-0.61,-0.53,0,*4A
1494100836.85,52622,16.0,73392.3,0.37,-0.61,-0.53,0,*49
1494100838.03,52623,16.0,73396.3,0.37,-0.61,-0.61,0,*49
1494100839.23,52624,16.0,73390.8,0.37,-0.53,-0.53,0,*4E
1494100840.41,52625,16.0,73392.0,0.37,-0.61,-0.61,0,*4F
1494100841.59,52626,16.0,73392.3,0.39,-0.57,-0.57,0,*42
1494100842.78,52627,16.0,73390.8,0.37,-0.53,-0.53,0,*4D
1494100843.95,52628,16.0,73392.3,0.39,-0.57,-0.57,0,*4C
1494100845.14,52629,16.0,73388.3,0.37,-0.61,-0.61,0,*43
1494100846.33,52630,16.0,73394.8,0.37,-0.65,-0.61,0,*4F
1494100847.5,52631,16.0,73388.5,0.39,-0.61,-0.57,0,*41
1494100848.66,52632,16.0,73390.8,0.39,-0.61,-0.57,0,*42
1494100849.86,52633,16.0,73390.5,0.37,-0.65,-0.65,0,*48
1494100851.02,52634,16.0,73388.0,0.39,-0.61,-0.57,0,*44
1494100852.19,52635,16.0,73390.8,0.39,-0.61,-0.49,0,*4A
1494100853.38,52636,16.0,73392.8,0.37,-0.65,-0.61,0,*49
1494100854.55,52637,16.0,73392.3,0.39,-0.57,-0.57,0,*42
1494100855.75,52638,16.0,73390.8,0.37,-0.53,-0.53,0,*43
1494100856.92,52639,16.0,73392.8,0.39,-0.45,-0.45,0,*4C
1494100858.12,52640,16.0,73388.8,0.37,-0.53,-0.49,0,*47
1494100859.32,52641,16.0,73394.5,0.37,-0.53,-0.49,0,*46
1494100860.49,52642,16.0,73394.5,0.39,-0.45,-0.45,0,*40
1494100861.69,52643,16.0,73392.5,0.37,-0.49,-0.41,0,*47
1494100862.88,52644,16.0,73390.5,0.37,-0.49,-0.53,0,*43
1494100864.08,52645,16.0,73392.5,0.37,-0.53,-0.49,0,*42
1494100865.25,52646,16.0,73390.5,0.39,-0.49,-0.45,0,*48
1494100866.42,52647,16.0,73392.5,0.39,-0.53,-0.61,0,*44
1494100867.59,52648,16.0,73394.3,0.39,-0.57,-0.57,0,*4A
1494100868.77,52649,16.0,73388.8,0.39,-0.49,-0.49,0,*4B
1494100869.94,52650,16.0,73388.8,0.39,-0.45,-0.57,0,*40
1494100871.11,52651,16.0,73388.5,0.39,-0.57,-0.61,0,*47
1494100872.28,52652,16.0,73390.5,0.39,-0.49,-0.49,0,*41
1494100873.47,52653,16.0,73388.3,0.37,-0.53,-0.61,0,*4F
1494100874.64,52654,16.0,73390.8,0.39,-0.49,-0.49,0,*47
1494100875.82,52655,16.0,73386.3,0.39,-0.45,-0.49,0,*4A
1494100877.01,52656,16.0,73388.8,0.37,-0.53,-0.53,0,*4B
1494100878.18,52657,16.0,73388.0,0.39,-0.49,-0.45,0,*48
1494100879.36,52658,16.0,73394.0,0.39,-0.45,-0.45,0,*4B
1494100880.56,52659,16.0,73392.0,0.37,-0.49,-0.41,0,*4C
1494100881.76,52660,16.0,73392.3,0.37,-0.41,-0.41,0,*4E
1494100882.96,52661,16.0,73390.5,0.37,-0.53,-0.49,0,*44
1494100884.13,52662,16.06,73396.0,0.39,-0.49,-0.57,0,*4D
1494100885.3,52663,16.0,73398.8,0.39,-0.53,-0.53,0,*43
1494100886.48,52664,16.0,73390.3,0.39,-0.57,-0.57,0,*44
1494100887.65,52665,16.0,73398.3,0.39,-0.57,-0.57,0,*45
1494100888.82,52666,16.0,73398.5,0.39,-0.49,-0.49,0,*46
1494100889.99,52667,16.0,73394.0,0.39,-0.49,-0.49,0,*47
1494100891.16,52668,16.0,73396.8,0.39,-0.49,-0.57,0,*47
1494100892.34,52669,16.0,73392.5,0.39,-0.49,-0.49,0,*49
1494100893.51,52670,16.0,73394.8,0.39,-0.49,-0.49,0,*41
1494100894.68,52671,16.0,73396.8,0.39,-0.49,-0.49,0,*40
1494100895.88,52672,16.0,73398.0,0.37,-0.53,-0.49,0,*46
1494100897.06,52673,16.0,73396.5,0.39,-0.45,-0.49,0,*4E
1494100898.25,52674,16.0,73392.5,0.41,-0.41,-0.45,0,*4E
1494100899.42,52675,16.0,73396.0,0.39,-0.49,-0.57,0,*4B
1494100900.59,52676,16.0,73402.3,0.39,-0.49,-0.49,0,*47
1494100901.77,52677,16.0,73398.5,0.39,-0.49,-0.49,0,*46
1494100902.96,52678,16.0,73392.0,0.37,-0.49,-0.53,0,*4C
1494100904.15,52679,16.0,73392.5,0.41,-0.53,-0.53,0,*47
1494100905.34,52680,16.0,73394.3,0.41,-0.53,-0.53,0,*41
1494100906.54,52681,16.0,73396.5,0.41,-0.41,-0.45,0,*44
1494100907.73,52682,16.0,73394.5,0.41,-0.45,-0.45,0,*43
1494100908.9,52683,16.0,73388.3,0.39,-0.49,-0.49,0,*4D
1494100910.08,52684,16.0,73388.0,0.39,-0.49,-0.49,0,*4A
1494100911.25,52685,16.0,73390.3,0.39,-0.49,-0.49,0,*4B
1494100912.42,52686,16.0,73388.5,0.39,-0.49,-0.49,0,*48
1494100913.61,52687,16.0,73388.3,0.37,-0.61,-0.53,0,*46
1494100914.78,52688,16.0,73390.0,0.39,-0.49,-0.49,0,*46
1494100915.96,52689,16.0,73394.5,0.39,-0.57,-0.49,0,*48
1494100917.14,52690,16.0,73390.8,0.39,-0.57,-0.49,0,*40
1494100918.31,52691,16.0,73388.3,0.39,-0.57,-0.61,0,*4B
1494100919.48,52692,16.0,73390.0,0.39,-0.57,-0.49,0,*42
1494100920.65,52693,16.0,73390.5,0.39,-0.61,-0.57,0,*49
1494100921.82,52694,16.06,73390.5,0.39,-0.69,-0.69,0,*4B
1494100922.98,52695,16.0,73386.5,0.39,-0.61,-0.61,0,*4A
1494100924.15,52696,16.0,73388.5,0.39,-0.57,-0.61,0,*4C
1494100925.33,52697,16.0,73388.5,0.39,-0.49,-0.49,0,*48
1494100926.5,52698,16.0,73390.8,0.39,-0.57,-0.57,0,*47
1494100927.66,52699,16.0,73392.5,0.39,-0.61,-0.57,0,*43
1494100928.83,52700,16.0,73394.8,0.39,-0.69,-0.61,0,*4F
1494100929.99,52701,16.0,73400.5,0.39,-0.61,-0.61,0,*46
1494100931.16,52702,16.0,73400.3,0.39,-0.61,-0.57,0,*40
1494100932.33,52703,16.0,73400.3,0.39,-0.69,-0.57,0,*49
1494100933.51,52704,16.0,73404.0,0.39,-0.69,-0.69,0,*43
1494100934.69,52705,16.0,73400.8,0.39,-0.73,-0.73,0,*42
1494100935.85,52706,16.0,73406.5,0.39,-0.61,-0.61,0,*41
1494100937.01,52707,16.0,73402.8,0.39,-0.61,-0.61,0,*40
1494100938.18,52708,16.0,73404.8,0.39,-0.49,-0.57,0,*40
1494100939.35,52709,16.0,73408.3,0.39,-0.57,-0.57,0,*4E
1494100940.53,52710,16.0,73406.0,0.39,-0.57,-0.57,0,*46
1494100941.7,52711,16.0,73406.8,0.39,-0.57,-0.57,0,*47
1494100942.87,52712,16.0,73404.3,0.39,-0.57,-0.49,0,*4B
1494100944.04,52713,16.0,73408.0,0.43,-0.45,-0.45,0,*48
1494100945.23,52714,16.0,73410.3,0.41,-0.53,-0.45,0,*4A
1494100946.43,52715,16.06,73408.8,0.41,-0.57,-0.53,0,*48
1494100947.62,52716,16.0,73406.8,0.41,-0.57,-0.57,0,*4F
1494100948.81,52717,16.0,73408.5,0.41,-0.69,-0.65,0,*42
1494100950.0,52718,16.0,73408.3,0.41,-0.57,-0.57,0,*41
1494100951.19,52719,16.0,73404.0,0.41,-0.57,-0.53,0,*44
1494100952.39,52720,16.0,73408.3,0.41,-0.57,-0.57,0,*4A
1494100953.58,52721,16.0,73408.0,0.41,-0.57,-0.57,0,*4B
1494100954.77,52722,16.0,73400.3,0.41,-0.65,-0.57,0,*49
1494100955.96,52723,16.0,73398.3,0.41,-0.57,-0.53,0,*4D
1494100957.13,52724,16.0,73398.5,0.43,-0.57,-0.57,0,*4C
1494100958.32,52725,16.0,73400.8,0.41,-0.53,-0.65,0,*4A
1494100959.51,52726,16.06,73398.8,0.41,-0.57,-0.65,0,*4D
1494100960.7,52727,16.0,73396.0,0.41,-0.57,-0.65,0,*4C
1494100961.89,52728,16.0,73394.0,0.41,-0.65,-0.53,0,*47
1494100963.08,52729,16.0,73392.5,0.41,-0.65,-0.57,0,*42
1494100964.27,52730,16.0,73390.0,0.41,-0.69,-0.65,0,*47
1494100965.47,52731,16.0,73386.8,0.41,-0.77,-0.81,0,*43
1494100966.68,52732,16.0,73386.0,0.39,-0.93,-0.85,0,*41
1494100967.9,52733,16.0,73388.0,0.39,-0.85,-0.85,0,*47
1494100969.07,52734,16.0,73392.3,0.39,-0.81,-0.81,0,*40
1494100970.25,52735,16.0,73394.0,0.39,-0.73,-0.73,0,*41
1494100971.43,52736,16.06,73396.3,0.39,-0.69,-0.73,0,*49
1494100972.6,52737,16.0,73394.8,0.39,-0.69,-0.61,0,*4B
1494100973.76,52738,16.0,73396.5,0.39,-0.61,-0.61,0,*4C
1494100974.93,52739,16.06,73400.3,0.39,-0.61,-0.57,0,*48
1494100976.1,52740,16.0,73396.8,0.39,-0.69,-0.57,0,*4E
1494100977.27,52741,16.0,73398.8,0.39,-0.61,-0.57,0,*47
1494100978.44,52742,16.0,73398.3,0.39,-0.69,-0.69,0,*41
1494100979.61,52743,16.06,73402.5,0.39,-0.69,-0.69,0,*40
1494100980.78,52744,16.0,73400.5,0.43,-0.69,-0.65,0,*46
1494100981.97,52745,16.0,73400.5,0.41,-0.69,-0.65,0,*45
1494100983.16,52746,16.0,73402.3,0.41,-0.57,-0.57,0,*4A
1494100984.35,52747,16.0,73400.5,0.41,-0.57,-0.57,0,*4B
1494100985.54,52748,16.0,73400.5,0.41,-0.57,-0.57,0,*44
1494100986.73,52749,16.0,73402.8,0.41,-0.57,-0.65,0,*44
1494100987.93,52750,16.0,73402.3,0.41,-0.53,-0.57,0,*49
1494100989.12,52751,16.0,73398.3,0.41,-0.57,-0.57,0,*4C
1494100990.31,52752,16.0,73394.5,0.41,-0.65,-0.57,0,*4E
1494100991.5,52753,16.0,73396.0,0.41,-0.77,-0.65,0,*4D
1494100992.69,52754,16.0,73396.5,0.41,-0.81,-0.81,0,*49
1494100993.89,52755,16.0,73392.8,0.41,-0.81,-0.69,0,*4E
1494100995.11,52756,16.0,73394.0,0.39,-0.93,-0.85,0,*43
1494100996.31,52757,16.0,73392.5,0.39,-0.85,-0.73,0,*4C
1494100997.5,52758,16.0,73392.5,0.39,-0.93,-0.73,0,*44
1494100998.69,52759,16.0,73394.8,0.41,-0.77,-0.65,0,*47
1494100999.89,52760,16.0,73394.5,0.39,-0.85,-0.81,0,*45
1494101001.13,52761,16.0,73396.5,0.37,-0.97,-0.85,0,*4D
1494101002.36,52762,16.0,73396.5,0.37,-0.97,-0.77,0,*43
1494101003.55,52763,16.0,73398.0,0.39,-0.93,-0.73,0,*4C
1494101004.75,52764,16.0,73398.5,0.39,-0.85,-0.69,0,*47
1494101005.92,52765,16.0,73398.3,0.39,-0.69,-0.69,0,*44
1494101007.12,52766,16.0,73398.8,0.41,-0.65,-0.57,0,*49
1494101008.31,52767,16.0,73400.5,0.41,-0.65,-0.57,0,*48
1494101009.5,52768,16.0,73398.3,0.41,-0.65,-0.53,0,*43
1494101010.67,52769,16.0,73398.0,0.39,-0.69,-0.61,0,*40
1494101011.84,52770,16.0,73394.0,0.39,-0.69,-0.61,0,*48
1494101013.03,52771,16.0,73404.3,0.41,-0.65,-0.53,0,*4B
1494101014.22,52772,16.0,73400.3,0.41,-0.77,-0.69,0,*42
1494101015.41,52773,16.0,73398.8,0.41,-0.77,-0.65,0,*4F
1494101016.6,52774,16.0,73402.5,0.41,-0.77,-0.57,0,*49
1494101017.8,52775,16.0,73398.8,0.41,-0.81,-0.69,0,*4C
1494101018.97,52776,16.0,73398.5,0.43,-0.77,-0.77,0,*4B
1494101020.17,52777,16.0,73402.3,0.41,-0.81,-0.77,0,*41
1494101021.36,52778,16.0,73398.3,0.41,-0.77,-0.65,0,*44
1494101022.55,52779,16.0,73394.3,0.41,-0.77,-0.65,0,*45
1494101023.74,52780,16.0,73398.8,0.41,-0.69,-0.65,0,*4C
1494101024.9,52781,16.0,73396.8,0.43,-0.69,-0.65,0,*4F
1494101026.09,52782,16.0,73396.5,0.41,-0.69,-0.69,0,*42
1494101027.29,52783,16.0,73402.0,0.41,-0.77,-0.69,0,*4C
1494101028.48,52784,16.0,73396.3,0.41,-0.77,-0.69,0,*4B
1494101029.67,52785,16.0,73398.8,0.41,-0.69,-0.69,0,*45
1494101030.86,52786,16.0,73398.8,0.41,-0.65,-0.65,0,*46
1494101032.05,52787,16.0,73392.8,0.41,-0.69,-0.69,0,*47
1494101033.22,52788,16.0,73390.5,0.43,-0.77,-0.69,0,*45
1494101034.41,52789,16.0,73392.5,0.41,-0.69,-0.65,0,*45
1494101035.6,52790,16.0,73388.8,0.41,-0.69,-0.65,0,*4D
1494101036.77,52791,16.0,73388.0,0.43,-0.77,-0.69,0,*4D
1494101037.94,52792,16.0,73388.0,0.43,-0.69,-0.69,0,*41
1494101039.11,52793,16.0,73388.5,0.43,-0.77,-0.69,0,*4F
1494101040.3,52794,16.0,73386.8,0.41,-0.69,-0.69,0,*45
1494101041.5,52795,16.0,73386.0,0.41,-0.77,-0.77,0,*44
1494101042.69,52796,16.0,73386.3,0.41,-0.77,-0.77,0,*47
1494101043.87,52797,16.0,73386.0,0.43,-0.81,-0.81,0,*44
1494101045.06,52798,16.0,73386.3,0.41,-0.81,-0.69,0,*4F
1494101046.25,52799,16.0,73382.5,0.41,-0.77,-0.69,0,*47
1494101047.45,52800,16.0,73384.5,0.41,-0.69,-0.77,0,*48
1494101048.64,52801,16.0,73384.8,0.41,-0.77,-0.77,0,*46
1494101049.86,52802,16.06,73390.8,0.41,-0.89,-0.77,0,*44
1494101051.06,52803,16.0,73384.5,0.41,-0.77,-0.81,0,*4D
1494101052.25,52804,16.0,73384.8,0.41,-0.81,-0.77,0,*4A
1494101053.45,52805,16.06,73390.3,0.41,-0.81,-0.77,0,*4B
1494101054.65,52806,16.0,73388.0,0.41,-0.81,-0.77,0,*48
1494101055.84,52807,16.0,73384.8,0.41,-0.77,-0.69,0,*4F
1494101057.01,52808,16.0,73386.3,0.39,-0.61,-0.69,0,*48
1494101058.18,52809,16.0,73384.0,0.39,-0.61,-0.57,0,*44
1494101059.34,52810,16.0,73392.0,0.39,-0.61,-0.61,0,*49
1494101060.53,52811,16.0,73392.5,0.41,-0.65,-0.57,0,*46
1494101061.72,52812,16.0,73394.0,0.41,-0.57,-0.57,0,*44
1494101062.91,52813,16.0,73386.3,0.41,-0.53,-0.53,0,*45
1494101064.11,52814,16.0,73392.3,0.41,-0.57,-0.53,0,*46
1494101065.3,52815,16.0,73390.0,0.41,-0.65,-0.53,0,*46
1494101066.49,52816,16.0,73392.0,0.41,-0.65,-0.57,0,*41
1494101067.68,52817,16.0,73390.0,0.41,-0.57,-0.57,0,*41
1494101068.87,52818,16.0,73388.3,0.41,-0.65,-0.57,0,*4F
1494101070.06,52819,16.0,73386.5,0.41,-0.65,-0.69,0,*43
1494101071.26,52820,16.0,73386.3,0.41,-0.69,-0.77,0,*4A
1494101072.45,52821,16.0,73384.3,0.41,-0.69,-0.65,0,*48
1494101073.64,52822,16.0,73388.0,0.41,-0.69,-0.65,0,*4B
1494101074.83,52823,16.0,73388.5,0.41,-0.57,-0.57,0,*46
1494101076.02,52824,16.0,73390.0,0.41,-0.57,-0.53,0,*45
1494101077.22,52825,16.0,73388.0,0.41,-0.53,-0.53,0,*40
1494101078.41,52826,16.0,73388.5,0.41,-0.57,-0.53,0,*47
1494101079.6,52827,16.0,73388.0,0.41,-0.53,-0.53,0,*42
1494101080.79,52828,16.0,73392.0,0.41,-0.53,-0.53,0,*4D
1494101081.98,52829,16.0,73392.0,0.41,-0.65,-0.57,0,*4D
1494101083.17,52830,16.06,73388.8,0.41,-0.65,-0.53,0,*41
1494101084.36,52831,16.0,73394.0,0.41,-0.65,-0.57,0,*44
1494101085.56,52832,16.0,73392.3,0.41,-0.65,-0.57,0,*47
1494101086.73,52833,16.0,73398.5,0.43,-0.57,-0.57,0,*45
1494101087.91,52834,16.0,73398.0,0.41,-0.65,-0.65,0,*40
1494101089.08,52835,16.0,73398.0,0.43,-0.57,-0.57,0,*43
1494101090.28,52836,16.0,73398.5,0.41,-0.45,-0.45,0,*42
1494101091.47,52837,16.0,73396.0,0.41,-0.53,-0.45,0,*44
1494101092.66,52838,16.0,73398.0,0.41,-0.53,-0.45,0,*4B
1494101093.85,52839,16.0,73400.3,0.41,-0.57,-0.53,0,*49
1494101095.05,52840,16.0,73402.5,0.41,-0.77,-0.57,0,*41
1494101096.22,52841,16.0,73402.0,0.43,-0.81,-0.57,0,*4B
1494101097.39,52842,16.0,73400.3,0.43,-0.81,-0.57,0,*48
1494101098.58,52843,16.0,73392.3,0.43,-0.89,-0.65,0,*40
1494101099.77,52844,16.0,73392.5,0.41,-0.81,-0.65,0,*4D
1494101100.94,52845,16.0,73396.0,0.43,-0.81,-0.65,0,*4E
1494101102.11,52846,16.0,73398.8,0.43,-0.77,-0.65,0,*44
1494101103.3,52847,16.0,73392.5,0.41,-0.77,-0.65,0,*47
1494101104.49,52848,16.0,73396.0,0.41,-0.69,-0.65,0,*47
1494101105.65,52849,16.0,73400.3,0.43,-0.81,-0.65,0,*42
1494101106.85,52850,16.0,73404.3,0.41,-0.81,-0.69,0,*44
1494101108.02,52851,16.0,73400.3,0.43,-0.69,-0.57,0,*4C
1494101109.21,52852,16.0,73404.3,0.41,-0.69,-0.65,0,*4C
1494101110.4,52853,16.0,73396.0,0.41,-0.77,-0.65,0,*42
1494101111.57,52854,16.0,73398.3,0.43,-0.69,-0.65,0,*48
1494101112.73,52855,16.0,73392.5,0.43,-0.77,-0.65,0,*46
1494101113.9,52856,16.0,73396.3,0.43,-0.69,-0.65,0,*4A
1494101115.09,52857,16.0,73398.3,0.41,-0.69,-0.65,0,*49
1494101116.28,52858,16.0,73396.3,0.41,-0.69,-0.57,0,*47
1494101117.47,52859,16.0,73394.0,0.41,-0.81,-0.69,0,*4D
1494101118.65,52860,16.0,73396.0,0.43,-0.81,-0.69,0,*45
1494101119.82,52861,16.0,73396.3,0.43,-0.77,-0.69,0,*4D
1494101120.98,52862,16.0,73396.0,0.43,-0.69,-0.65,0,*4D
1494101122.15,52863,16.0,73396.8,0.43,-0.69,-0.57,0,*4D
1494101123.32,52864,16.0,73398.8,0.43,-0.77,-0.65,0,*44
1494101124.49,52865,16.0,73402.5,0.43,-0.69,-0.57,0,*4B
1494101125.66,52866,16.0,73400.0,0.43,-0.57,-0.57,0,*45
1494101126.82,52867,16.0,73400.8,0.43,-0.77,-0.57,0,*46
1494101127.99,52868,16.0,73398.5,0.43,-0.69,-0.69,0,*4B
1494101129.16,52869,16.0,73400.0,0.43,-0.77,-0.65,0,*49
1494101130.35,52870,16.0,73398.5,0.41,-0.69,-0.65,0,*4C
1494101131.52,52871,16.0,73398.5,0.43,-0.77,-0.69,0,*4C
1494101132.71,52872,16.0,73402.8,0.41,-0.77,-0.77,0,*42
1494101133.88,52873,16.0,73402.3,0.43,-0.65,-0.65,0,*41
1494101135.05,52874,16.0,73404.0,0.43,-0.57,-0.53,0,*42
1494101136.24,52875,16.0,73400.3,0.41,-0.65,-0.53,0,*40
1494101137.41,52876,16.0,73396.8,0.43,-0.69,-0.65,0,*48
1494101138.58,52877,16.0,73396.5,0.43,-0.77,-0.77,0,*45
1494101139.77,52878,16.0,73396.3,0.41,-0.81,-0.77,0,*41
1494101140.94,52879,16.0,73398.3,0.43,-0.69,-0.69,0,*4B
1494101142.14,52880,16.0,73392.5,0.41,-0.77,-0.69,0,*40
1494101143.33,52881,16.0,73396.8,0.41,-0.77,-0.69,0,*41
1494101144.5,52882,16.0,73392.0,0.43,-0.77,-0.69,0,*40
1494101145.69,52883,16.0,73394.5,0.41,-0.69,-0.69,0,*4C
1494101146.88,52884,16.0,73394.3,0.41,-0.69,-0.69,0,*4B
1494101148.06,52885,16.0,73396.3,0.43,-0.69,-0.77,0,*47
1494101149.23,52886,16.0,73396.3,0.43,-0.77,-0.77,0,*4B
1494101150.42,52887,16.0,73398.3,0.41,-0.81,-0.69,0,*4E
1494101151.59,52888,16.0,73396.3,0.43,-0.77,-0.69,0,*4A
1494101152.76,52889,16.0,73398.8,0.43,-0.69,-0.57,0,*49
1494101153.96,52890,16.0,73392.3,0.41,-0.81,-0.81,0,*4E
1494101155.16,52891,16.0,73394.0,0.41,-0.81,-0.77,0,*46
1494101156.35,52892,16.0,73396.0,0.41,-0.77,-0.69,0,*43
1494101157.52,52893,16.0,73398.3,0.43,-0.69,-0.69,0,*4F
1494101158.69,52894,16.0,73394.3,0.43,-0.81,-0.69,0,*4E
1494101159.86,52895,16.0,73392.3,0.43,-0.77,-0.69,0,*46
1494101161.03,52896,16.0,73394.8,0.43,-0.69,-0.69,0,*4A
1494101162.2,52897,16.06,73394.5,0.43,-0.81,-0.69,0,*4D
1494101163.39,52898,16.06,73398.0,0.43,-0.93,-0.81,0,*47
1494101164.58,52899,16.0,73392.5,0.43,-0.93,-0.69,0,*40
1494101165.79,52900,16.0,73398.3,0.43,-1.01,-0.77,0,*74
1494101167.01,52901,16.0,73398.0,0.45,-0.97,-0.85,0,*40
1494101168.22,52902,16.0,73396.5,0.41,-0.93,-0.81,0,*47
1494101169.45,52903,16.0,73402.0,0.41,-1.05,-0.77,0,*71
1494101170.7,52904,16.0,73396.8,0.41,-1.05,-0.89,0,*77
1494101171.92,52905,16.0,73394.3,0.43,-1.13,-0.89,0,*73
1494101173.14,52906,16.0,73390.8,0.41,-1.21,-0.89,0,*73
1494101174.36,52907,16.0,73394.0,0.41,-1.17,-0.89,0,*77
1494101175.61,52908,16.0,73388.0,0.41,-1.13,-0.89,0,*7C
1494101176.81,52909,16.0,73392.0,0.43,-1.05,-0.81,0,*70
1494101178.01,52910,16.0,73388.5,0.43,-1.05,-0.81,0,*78
1494101179.21,52911,16.0,73392.0,0.43,-1.13,-0.81,0,*7E
1494101180.41,52912,16.0,73396.5,0.41,-1.21,-0.81,0,*7E
1494101181.64,52913,16.0,73394.5,0.41,-1.17,-0.89,0,*72
1494101182.84,52914,16.0,73394.0,0.43,-1.05,-0.81,0,*7C
1494101184.05,52915,16.0,73392.3,0.43,-1.05,-0.69,0,*7B
1494101185.25,52916,16.0,73394.5,0.43,-1.01,-0.77,0,*73
1494101186.47,52917,16.0,73394.5,0.41,-1.01,-0.77,0,*70
1494101187.67,52918,16.0,73396.3,0.43,-1.01,-0.81,0,*74
1494101188.87,52919,16.0,73394.3,0.43,-0.93,-0.77,0,*46
1494101190.06,52920,16.0,73394.3,0.43,-1.01,-0.65,0,*75
1494101191.26,52921,16.0,73398.8,0.43,-1.01,-0.69,0,*78
1494101192.48,52922,16.0,73398.3,0.41,-1.01,-0.69,0,*79
1494101193.69,52923,16.0,73396.3,0.43,-1.05,-0.69,0,*7E
1494101194.91,52924,16.0,73400.0,0.41,-1.05,-0.69,0,*7B
1494101196.11,52925,16.0,73400.5,0.43,-1.13,-0.69,0,*7F
1494101197.3,52926,16.0,73398.5,0.45,-1.17,-0.77,0,*71
1494101198.55,52927,16.0,73398.3,0.41,-1.39,-0.89,0,*79
1494101199.77,52928,16.0,73396.8,0.43,-1.43,-0.89,0,*79
1494101200.97,52929,16.0,73396.8,0.41,-1.21,-0.81,0,*76
1494101202.15,52930,16.0,73394.0,0.43,-1.17,-0.81,0,*79
1494101203.35,52931,16.0,73398.0,0.43,-1.05,-0.81,0,*7B
1494101204.56,52932,16.0,73398.0,0.43,-1.05,-0.81,0,*78
1494101205.76,52933,16.0,73394.5,0.43,-1.05,-0.81,0,*79
1494101206.96,52934,16.0,73396.8,0.43,-1.01,-0.69,0,*7C
1494101208.17,52935,16.0,73392.0,0.41,-0.89,-0.65,0,*42
1494101209.34,52936,16.0,73388.3,0.43,-0.81,-0.65,0,*4B
1494101210.51,52937,16.0,73382.5,0.43,-0.81,-0.65,0,*4A
1494101211.7,52938,16.0,73378.5,0.41,-0.81,-0.65,0,*47
1494101212.92,52939,16.0,73378.8,0.41,-0.89,-0.81,0,*44
1494101214.16,52940,16.0,73378.8,0.41,-0.93,-0.89,0,*49
1494101215.38,52941,16.0,73374.0,0.43,-1.01,-0.89,0,*70
1494101216.62,52942,16.0,73372.8,0.41,-1.01,-0.89,0,*71
1494101217.87,52943,16.0,73374.0,0.41,-1.05,-0.93,0,*7F
1494101219.11,52944,16.0,73370.8,0.41,-1.05,-0.93,0,*78
1494101220.36,52945,16.0,73376.8,0.41,-1.05,-0.89,0,*72
1494101221.57,52946,16.0,73380.3,0.41,-0.93,-0.81,0,*47
1494101222.8,52947,16.0,73380.0,0.41,-1.01,-0.81,0,*7C
1494101223.99,52948,16.0,73380.0,0.43,-0.93,-0.81,0,*4B
1494101225.2,52949,16.0,73388.3,0.41,-0.93,-0.81,0,*48
1494101226.42,52950,16.0,73388.5,0.41,-0.93,-0.81,0,*40
1494101227.64,52951,16.0,73396.3,0.41,-1.01,-0.81,0,*7B
1494101228.86,52952,16.0,73390.5,0.41,-1.01,-0.81,0,*78
1494101230.1,52953,16.0,73392.5,0.41,-0.93,-0.89,0,*4B
1494101231.31,52954,16.0,73394.8,0.41,-0.93,-0.81,0,*44
1494101232.5,52955,16.0,73392.0,0.41,-0.77,-0.69,0,*49
1494101233.7,52956,16.0,73392.0,0.41,-0.81,-0.77,0,*4C
1494101234.87,52957,16.0,73394.0,0.43,-0.81,-0.69,0,*40
1494101236.07,52958,16.0,73392.0,0.41,-0.77,-0.77,0,*4B
1494101237.26,52959,16.0,73394.0,0.41,-0.77,-0.77,0,*4A
1494101238.46,52960,16.0,73394.3,0.41,-0.81,-0.81,0,*40
1494101239.66,52961,16.0,73392.3,0.41,-0.81,-0.69,0,*47
1494101240.83,52962,16.0,73388.0,0.43,-0.81,-0.69,0,*46
1494101242.0,52963,16.0,73390.3,0.43,-0.77,-0.77,0,*41
1494101243.19,52964,16.0,73388.5,0.41,-0.77,-0.69,0,*4B
1494101244.37,52965,16.0,73390.0,0.43,-0.81,-0.77,0,*4E
1494101245.57,52966,16.0,73388.5,0.41,-0.81,-0.77,0,*4F
1494101246.74,52967,16.0,73388.0,0.43,-0.81,-0.81,0,*45
1494101247.91,52968,16.0,73384.5,0.43,-0.77,-0.81,0,*43
1494101249.1,52969,16.0,73388.5,0.43,-0.89,-0.77,0,*4A
1494101250.3,52970,16.0,73388.3,0.41,-0.81,-0.69,0,*47
1494101251.47,52971,16.0,73390.0,0.43,-0.77,-0.77,0,*42
1494101252.67,52972,16.0,73392.3,0.43,-0.89,-0.77,0,*40
1494101253.89,52973,16.0,73388.8,0.41,-1.01,-0.81,0,*7B
1494101255.13,52974,16.0,73392.8,0.41,-1.01,-0.89,0,*74
1494101256.36,52975,16.0,73390.0,0.43,-1.05,-0.93,0,*78
1494101257.57,52976,16.0,73390.3,0.41,-0.93,-0.81,0,*44
1494101258.8,52977,16.0,73392.5,0.41,-1.01,-0.81,0,*7F
1494101259.99,52978,16.0,73392.0,0.43,-0.89,-0.81,0,*43
1494101261.18,52979,16.0,73390.3,0.43,-0.89,-0.81,0,*42
1494101262.4,52980,16.0,73392.0,0.41,-0.89,-0.69,0,*40
1494101263.59,52981,16.0,73394.0,0.43,-0.89,-0.81,0,*45
1494101264.83,52982,16.0,73390.5,0.41,-0.93,-0.89,0,*47
1494101266.02,52983,16.0,73388.0,0.41,-0.81,-0.81,0,*4D
1494101267.24,52984,16.0,73384.8,0.43,-0.93,-0.89,0,*43
1494101268.48,52985,16.0,73382.5,0.41,-1.01,-0.89,0,*7A
1494101269.71,52986,16.0,73386.5,0.43,-1.13,-1.01,0,*49
1494101270.91,52987,16.0,73386.0,0.43,-1.17,-1.01,0,*4C
1494101272.15,52988,16.0,73388.5,0.41,-1.21,-1.05,0,*40
1494101273.35,52989,16.0,73384.5,0.43,-1.33,-1.13,0,*47
1494101274.59,52990,16.0,73388.3,0.41,-1.43,-1.13,0,*4A
1494101275.82,52991,16.0,73382.8,0.41,-1.67,-1.05,0,*4A
1494101277.02,52992,16.0,73386.3,0.41,-2.19,-1.17,0,*40
1494101278.22,52993,16.0,73386.3,0.41,-3.19,-1.51,0,*42
1494101279.41,52994,16.0,73382.8,0.43,-3.83,-1.79,0,*4E
1494101280.64,52995,16.0,73380.0,0.41,-4.33,-2.03,0,*4F
1494101281.84,52996,16.0,73384.8,0.41,-6.43,-2.39,0,*40
1494101283.07,52997,16.0,73382.0,0.41,-7.31,-2.95,0,*43
1494101284.32,52998,16.0,73378.5,0.41,-5.65,-2.55,0,*43
1494101285.56,52999,16.0,73380.8,0.41,-6.81,-2.63,0,*4E
1494101286.81,53000,16.0,73380.0,0.41,-6.27,-2.67,0,*4E
1494101288.03,53001,16.0,73378.0,0.41,-6.63,-2.79,0,*40
1494101289.28,53002,16.0,73382.5,0.41,-7.05,-2.67,0,*4D
1494101290.5,53003,16.0,73378.5,0.41,-7.91,-3.03,0,*42
1494101291.68,53004,16.0,73380.3,0.39,-8.17,-3.07,0,*4F
1494101292.87,53005,16.0,73378.5,0.39,-7.23,-2.95,0,*4C
1494101294.08,53006,16.0,73382.0,0.39,-6.43,-2.71,0,*42
1494101295.34,53007,16.0,73390.8,0.37,-6.27,-2.63,0,*4C
1494101296.52,53008,16.0,73392.0,0.39,-6.81,-2.83,0,*4F
1494101297.7,53009,16.0,73394.8,0.39,-7.49,-2.95,0,*4C
1494101298.88,53010,16.0,73390.0,0.39,-8.45,-3.19,0,*42
1494101300.08,53011,16.0,73388.8,0.39,-8.03,-2.95,0,*44
1494101301.29,53012,16.0,73392.0,0.39,-9.41,-3.07,0,*4A
1494101302.52,53013,16.0,73388.5,0.39,-11.07,-3.55,0,*77
1494101303.73,53014,16.0,73384.3,0.39,-10.31,-3.55,0,*74
1494101304.93,53015,16.0,73384.5,0.39,-10.05,-3.59,0,*7E
1494101306.14,53016,16.0,73384.8,0.39,-10.35,-3.71,0,*74
1494101307.34,53017,16.0,73380.3,0.39,-8.89,-3.63,0,*48
1494101308.55,53018,16.0,73388.3,0.39,-8.41,-3.59,0,*4A
1494101309.73,53019,16.0,73390.5,0.39,-10.23,-4.09,0,*74